CW5307 Weather Reports


time (UTC)temp
F
wind
direction
speed
knots
gust
knots
rain 1hr
in
rain 24hr
in
rain mn
in
humidity
%
barometer
mb
20260505070744 61 187 0.9 3.5 0.00 0.00 0.00 56 1007.5
20260505070242 61 187 0.9 1.7 0.00 0.00 0.00 56 1007.5
20260505065744 61 187 0.9 2.6 0.00 0.00 0.00 56 1007.3
20260505065244 61 187 0.9 2.6 0.00 0.00 0.00 56 1007.3
20260505064747 61 187 1.7 2.6 0.00 0.00 0.00 56 1007.3
20260505064242 61 187 0.0 2.6 0.00 0.00 0.00 56 1007.4
20260505063750 61 187 0.0 1.7 0.00 0.00 0.00 55 1007.4
20260505063241 62 187 2.6 3.5 0.00 0.00 0.00 55 1007.4
20260505062741 62 187 0.0 2.6 0.00 0.00 0.00 55 1007.5
20260505062244 62 187 0.0 2.6 0.00 0.00 0.00 55 1007.5
20260505061742 62 187 0.9 3.5 0.00 0.00 0.00 55 1007.5
20260505061241 62 187 0.9 3.5 0.00 0.00 0.00 54 1007.6
20260505060742 62 186 1.7 4.3 0.00 0.00 0.00 54 1007.6
20260505060245 62 186 0.0 2.6 0.00 0.00 0.00 55 1007.6
20260505055744 62 186 0.0 0.9 0.00 0.00 0.00 55 1007.7
20260505055250 62 186 0.0 0.9 0.00 0.00 0.00 55 1007.7
20260505054745 62 186 0.0 1.7 0.00 0.00 0.00 54 1007.7
20260505054247 62 186 0.0 2.6 0.00 0.00 0.00 54 1007.7
20260505053742 62 186 0.0 4.3 0.00 0.00 0.00 54 1007.7
20260505053241 62 186 0.9 2.6 0.00 0.00 0.00 54 1007.7
20260505052747 62 186 0.9 3.5 0.00 0.00 0.00 54 1007.7
20260505052244 62 186 0.9 3.5 0.00 0.00 0.00 54 1007.7
20260505051745 62 186 0.9 3.5 0.00 0.00 0.00 54 1007.7
20260505051250 62 186 0.9 3.5 0.00 0.00 0.00 55 1007.7
20260505050747 62 187 2.6 4.3 0.00 0.00 0.00 55 1007.7
20260505050245 61 187 3.5 5.2 0.00 0.00 0.00 56 1007.7
20260505041744 60 142 0.9 3.5 0.00 0.00 0.00 57 1007.6
20260505041241 60 142 0.9 1.7 0.00 0.00 0.00 57 1007.6
20260505040747 60 142 0.0 1.7 0.00 0.00 0.00 57 1007.6
20260505040241 60 142 0.0 1.7 0.00 0.00 0.00 56 1007.6
20260505035742 60 142 0.0 1.7 0.00 0.00 0.00 56 1007.7
20260505035251 61 142 0.9 1.7 0.00 0.00 0.00 56 1007.7
20260505034744 61 142 0.0 0.9 0.00 0.00 0.00 56 1007.7
20260505034247 61 142 0.0 4.3 0.00 0.00 0.00 55 1007.7
20260505033741 61 142 0.0 0.9 0.00 0.00 0.00 55 1007.7
20260505033250 62 142 0.0 0.0 0.00 0.00 0.00 54 1007.7
20260505032747 62 142 0.0 1.7 0.00 0.00 0.00 54 1007.6
20260505032241 62 142 0.0 0.9 0.00 0.00 0.00 53 1007.6
20260505031744 62 142 0.9 1.7 0.00 0.00 0.00 53 1007.6
20260505031241 62 142 0.0 0.0 0.00 0.00 0.00 52 1007.5
20260505030744 63 142 0.0 0.0 0.00 0.00 0.00 52 1007.5
20260505030247 63 142 0.0 0.0 0.00 0.00 0.00 52 1007.5
20260505025745 63 142 0.0 0.9 0.00 0.00 0.00 51 1007.7
20260505025248 64 142 0.0 0.0 0.00 0.00 0.00 51 1007.7
20260505024747 64 142 0.0 0.0 0.00 0.00 0.00 49 1007.7
20260505024241 64 142 0.0 0.0 0.00 0.00 0.00 48 1007.7
20260505023744 65 142 0.0 0.0 0.00 0.00 0.00 47 1007.7
20260505023245 65 142 0.0 1.7 0.00 0.00 0.00 47 1007.7
20260505022745 66 142 0.0 0.0 0.00 0.00 0.00 46 1007.4
20260505022241 66 142 0.0 0.9 0.00 0.00 0.00 47 1007.4
20260505021742 66 142 0.0 3.5 0.00 0.00 0.00 47 1007.4
20260505021244 67 142 0.9 1.7 0.00 0.00 0.00 47 1007.5
20260505020741 67 142 0.0 1.7 0.00 0.00 0.00 45 1007.5
20260505020244 67 142 1.7 4.3 0.00 0.00 0.00 41 1007.5
20260505015750 67 142 0.0 4.3 0.00 0.00 0.00 40 1007.4
20260505015247 68 142 0.9 3.5 0.00 0.00 0.00 40 1007.4
20260505014741 68 142 0.9 4.3 0.00 0.00 0.00 39 1007.4
20260505014242 68 142 0.0 3.5 0.00 0.00 0.00 39 1007.0
20260505013741 69 142 1.7 1.7 0.00 0.00 0.00 41 1007.0
20260505013244 69 142 0.9 3.5 0.00 0.00 0.00 39 1007.0
20260505012744 69 142 1.7 3.5 0.00 0.00 0.00 37 1007.2
20260505012252 69 142 0.9 4.3 0.00 0.00 0.00 37 1007.2
20260505011742 70 142 0.9 4.3 0.00 0.00 0.00 36 1007.2
20260505011247 70 142 3.5 3.5 0.00 0.00 0.00 36 1007.1
20260505010747 70 142 1.7 4.3 0.00 0.00 0.00 35 1007.1
20260505010241 70 142 1.7 1.7 0.00 0.00 0.00 36 1007.1
20260505005742 71 142 0.9 3.5 0.00 0.00 0.00 34 1006.9
20260505005241 71 142 0.9 4.3 0.00 0.00 0.00 34 1006.9
20260505004745 71 142 0.9 4.3 0.00 0.00 0.00 33 1006.9
20260505004244 71 142 0.0 5.2 0.00 0.00 0.00 33 1006.8
20260505003747 71 142 0.9 5.2 0.00 0.00 0.00 33 1006.8
20260505003247 71 139 1.7 5.2 0.00 0.00 0.00 33 1006.8
20260505002741 72 138 4.3 6.1 0.00 0.00 0.00 32 1006.8
20260505002247 72 132 0.9 7.8 0.00 0.00 0.00 32 1006.8
20260505001741 72 157 4.3 7.0 0.00 0.00 0.00 32 1006.8
20260505001244 72 139 1.7 7.8 0.00 0.00 0.00 31 1006.7
20260505000744 72 166 4.3 7.0 0.00 0.00 0.00 31 1006.7
20260505000244 72 146 1.7 7.0 0.00 0.00 0.00 31 1006.7
20260504235743 72 138 3.5 7.8 0.00 0.00 0.00 31 1006.7
20260504235248 73 171 0.0 5.2 0.00 0.00 0.00 31 1006.7
20260504234741 73 236 0.9 7.0 0.00 0.00 0.00 30 1006.7
20260504234241 73 157 3.5 7.0 0.00 0.00 0.00 29 1006.7
20260504233741 73 177 0.0 7.8 0.00 0.00 0.00 29 1006.7
20260504233241 73 125 3.5 7.0 0.00 0.00 0.00 29 1006.7
20260504232744 74 178 4.3 6.1 0.00 0.00 0.00 28 1006.6
20260504232248 74 165 3.5 7.8 0.00 0.00 0.00 27 1006.6
20260504231744 74 183 0.9 6.1 0.00 0.00 0.00 27 1006.6
20260504231241 74 202 3.5 9.6 0.00 0.00 0.00 28 1006.7
20260504230741 74 162 1.7 7.0 0.00 0.00 0.00 27 1006.7
20260504230247 74 203 1.7 11.3 0.00 0.00 0.00 28 1006.7
20260504225741 74 110 5.2 9.6 0.00 0.00 0.00 27 1006.6
20260504225241 75 289 5.2 13.9 0.00 0.00 0.00 28 1006.6
20260504224747 75 192 7.0 12.2 0.00 0.00 0.00 27 1006.6
20260504224247 75 155 4.3 11.3 0.00 0.00 0.00 27 1006.4
20260504223744 75 196 6.1 12.2 0.00 0.00 0.00 27 1006.4
20260504223251 75 215 4.3 10.4 0.00 0.00 0.00 27 1006.4
20260504222748 75 148 7.8 12.2 0.00 0.00 0.00 26 1006.4
20260504222247 75 164 7.0 10.4 0.00 0.00 0.00 26 1006.4
20260504221744 75 177 5.2 7.8 0.00 0.00 0.00 26 1006.4
20260504221250 76 279 1.7 6.1 0.00 0.00 0.00 26 1006.4
20260504220741 76 227 3.5 12.2 0.00 0.00 0.00 26 1006.4
20260504220242 76 150 3.5 14.8 0.00 0.00 0.00 25 1006.4
20260504215741 77 207 5.2 7.0 0.00 0.00 0.00 26 1006.5
20260504215241 77 254 3.5 9.6 0.00 0.00 0.00 26 1006.5
20260504214750 77 155 5.2 11.3 0.00 0.00 0.00 25 1006.5
20260504214241 77 152 5.2 6.1 0.00 0.00 0.00 25 1006.5
20260504213744 77 103 3.5 10.4 0.00 0.00 0.00 25 1006.5
20260504213244 78 217 1.7 7.8 0.00 0.00 0.00 25 1006.5
20260504212745 78 152 4.3 9.6 0.00 0.00 0.00 24 1006.6
20260504212241 78 192 0.9 8.7 0.00 0.00 0.00 24 1006.6
20260504211748 78 162 0.9 8.7 0.00 0.00 0.00 24 1006.5
20260504211241 79 182 8.7 11.3 0.00 0.00 0.00 25 1006.6
20260504210741 79 169 5.2 9.6 0.00 0.00 0.00 24 1006.6
20260504210242 79 135 4.3 10.4 0.00 0.00 0.00 25 1006.6
20260504205747 79 139 3.5 10.4 0.00 0.00 0.00 24 1006.5
20260504205244 80 159 10.4 13.0 0.00 0.00 0.00 23 1006.5
20260504204741 80 126 4.3 8.7 0.00 0.00 0.00 23 1006.5
20260504204241 80 115 4.3 9.6 0.00 0.00 0.00 23 1006.6
20260504203741 80 148 7.0 8.7 0.00 0.00 0.00 25 1006.6
20260504203241 80 220 5.2 11.3 0.00 0.00 0.00 23 1006.6
20260504202741 80 150 1.7 8.7 0.00 0.00 0.00 23 1006.9
20260504202251 80 135 1.7 7.8 0.00 0.00 0.00 23 1006.8
20260504201741 80 171 6.1 7.8 0.00 0.00 0.00 24 1006.8
20260504201241 80 192 4.3 7.0 0.00 0.00 0.00 24 1007.0
20260504200745 80 206 1.7 8.7 0.00 0.00 0.00 23 1007.0
20260504200242 80 292 2.6 7.0 0.00 0.00 0.00 25 1007.0
20260504195751 80 153 1.7 9.6 0.00 0.00 0.00 24 1007.1
20260504195246 80 132 3.5 13.0 0.00 0.00 0.00 22 1007.1
20260504194742 80 153 4.3 7.8 0.00 0.00 0.00 27 1007.1
20260504194244 80 194 1.7 7.0 0.00 0.00 0.00 23 1007.5
20260504193744 80 146 0.0 8.7 0.00 0.00 0.00 25 1007.5
20260504193247 80 203 4.3 7.0 0.00 0.00 0.00 25 1007.5
20260504192741 79 258 0.0 6.1 0.00 0.00 0.00 25 1007.6
20260504192241 79 196 1.7 4.3 0.00 0.00 0.00 28 1007.6
20260504191747 79 200 3.5 7.0 0.00 0.00 0.00 25 1007.6
20260504191247 79 156 4.3 12.2 0.00 0.00 0.00 25 1007.9
20260504190741 79 171 4.3 8.7 0.00 0.00 0.00 25 1007.9
20260504190241 79 173 6.1 8.7 0.00 0.00 0.00 25 1007.9
20260504185741 79 214 2.6 7.8 0.00 0.00 0.00 25 1008.1
20260504185241 78 263 2.6 8.7 0.00 0.00 0.00 26 1008.1
20260504184747 79 165 5.2 9.6 0.00 0.00 0.00 24 1008.1
20260504184244 79 224 1.7 11.3 0.00 0.00 0.00 23 1008.0
20260504183747 79 164 3.5 16.5 0.00 0.00 0.00 24 1008.0
20260504183244 79 87 7.0 13.0 0.00 0.00 0.00 25 1008.0
20260504182741 79 207 3.5 10.4 0.00 0.00 0.00 25 1008.5
20260504182241 80 96 1.7 7.8 0.00 0.00 0.00 26 1008.5
20260504181741 79 241 3.5 7.0 0.00 0.00 0.00 24 1008.5
20260504181241 79 167 1.7 7.8 0.00 0.00 0.00 22 1008.5
20260504180745 79 173 3.5 9.6 0.00 0.00 0.00 22 1008.5
20260504180241 79 128 3.5 9.6 0.00 0.00 0.00 23 1008.5
20260504175742 79 154 7.8 8.7 0.00 0.00 0.00 23 1008.6
20260504175244 79 156 5.2 7.8 0.00 0.00 0.00 22 1008.6
20260504174745 79 211 0.9 6.1 0.00 0.00 0.00 24 1008.6
20260504174242 78 297 1.7 7.8 0.00 0.00 0.00 24 1008.8
20260504173744 78 267 1.7 10.4 0.00 0.00 0.00 23 1008.8
20260504173241 78 213 3.5 9.6 0.00 0.00 0.00 24 1008.8
20260504172744 78 158 4.3 7.0 0.00 0.00 0.00 22 1009.0
20260504172242 78 170 5.2 10.4 0.00 0.00 0.00 23 1009.0
20260504171741 78 300 0.9 6.1 0.00 0.00 0.00 25 1009.0
20260504171244 78 313 1.7 7.0 0.00 0.00 0.00 23 1009.3
20260504170741 78 271 4.3 7.0 0.00 0.00 0.00 24 1009.3
20260504170247 78 187 0.9 8.7 0.00 0.00 0.00 25 1009.3
20260504160248 75 233 2.6 7.8 0.00 0.00 0.00 27 1010.0
20260504150745 70 185 2.6 8.7 0.00 0.00 0.00 27 1010.5
20260504150244 70 214 2.6 9.6 0.00 0.00 0.00 28 1010.5
20260504141241 62 159 4.3 6.1 0.00 0.00 0.00 41 1010.6
20260504140747 61 169 1.7 6.1 0.00 0.00 0.00 45 1010.5
20260504140241 60 163 0.9 5.2 0.00 0.00 0.00 46 1010.5
20260504130741 54 259 1.7 5.2 0.00 0.00 0.00 56 1010.9
20260504130241 54 179 5.2 5.2 0.00 0.00 0.00 56 1010.9
20260504120241 49 213 3.5 4.3 0.00 0.00 0.00 67 1011.4
20260504110246 46 257 0.0 1.7 0.00 0.00 0.00 73 1011.5
20260504100244 46 257 0.0 0.0 0.00 0.00 0.00 76 1011.5
20260504081744 45 257 0.0 0.0 0.00 0.00 0.00 76 1012.0
20260504081247 45 257 0.0 0.0 0.00 0.00 0.00 76 1012.0
20260504080741 45 257 0.0 0.0 0.00 0.00 0.00 76 1012.0
20260504080244 45 257 0.0 0.0 0.00 0.00 0.00 76 1012.0